ENMS Weather Reports


time (UTC)temp
C
wind
direction
speed
KPH
gust
KPH
rain 1hr
cm
rain 24hr
cm
rain mn
cm
humidity
%
barometer
mb
20260506023306 1 210 9.7 0.0 0.00 0.00 0.00 86 1005.0
20260506020306 0 130 4.8 0.0 0.00 0.00 0.00 93 1005.0
20260506013307 1 200 12.9 0.0 0.00 0.00 0.00 86 1004.0
20260506010307 0 190 9.7 0.0 0.00 0.00 0.00 93 1004.0
20260506003306 0 190 4.8 0.0 0.00 0.00 0.00 93 1004.0
20260506000307 0 160 4.8 0.0 0.00 0.00 0.00 93 1004.0
20260505233307 0 200 9.7 0.0 0.00 0.00 0.00 93 1004.0
20260505230306 0 190 8.0 0.0 0.00 0.00 0.00 93 1004.0
20260505223306 0 180 9.7 0.0 0.00 0.00 0.00 93 1003.0
20260505220306 0 170 9.7 0.0 0.00 0.00 0.00 93 1003.0
20260505213306 0 180 14.5 0.0 0.00 0.00 0.00 93 1003.0
20260505210306 0 180 16.1 0.0 0.00 0.00 0.00 93 1003.0
20260505203306 1 200 14.5 0.0 0.00 0.00 0.00 86 1003.0
20260505200306 1 160 11.3 29.0 0.00 0.00 0.00 86 1003.0
20260505193306 1 160 19.3 0.0 0.00 0.00 0.00 86 1003.0
20260505190306 1 160 11.3 0.0 0.00 0.00 0.00 86 1003.0
20260505183306 2 190 9.7 0.0 0.00 0.00 0.00 80 1003.0
20260505180307 1 150 8.0 0.0 0.00 0.00 0.00 86 1003.0
20260505173307 2 190 9.7 0.0 0.00 0.00 0.00 80 1004.0
20260505170307 0 140 8.0 0.0 0.00 0.00 0.00 93 1004.0
20260505163307 1 0 0.0 0.0 0.00 0.00 0.00 80 1004.0
20260505160307 1 0 4.8 0.0 0.00 0.00 0.00 80 1004.0
20260505153307 2 180 12.9 0.0 0.00 0.00 0.00 74 1004.0
20260505150306 5 0 0.0 0.0 0.00 0.00 0.00 60 1003.0
20260505140307 5 230 16.1 0.0 0.00 0.00 0.00 56 1003.0
20260505130307 2 150 11.3 0.0 0.00 0.00 0.00 80 1003.0
20260505123306 2 230 12.9 0.0 0.00 0.00 0.00 74 1003.0
20260505120306 3 190 9.7 0.0 0.00 0.00 0.00 75 1003.0
20260505113307 2 50 3.2 0.0 0.00 0.00 0.00 74 1003.0
20260505110307 3 30 8.0 0.0 0.00 0.00 0.00 69 1002.0
20260505100307 5 290 8.0 0.0 0.00 0.00 0.00 70 1002.0
20260505093306 2 10 4.8 0.0 0.00 0.00 0.00 80 1002.0
20260505090307 3 0 4.8 0.0 0.00 0.00 0.00 69 1002.0
20260505083306 1 190 8.0 0.0 0.00 0.00 0.00 86 1002.0
20260505080307 0 180 14.5 0.0 0.00 0.00 0.00 93 1002.0
20260505073306 0 170 9.7 0.0 0.00 0.00 0.00 93 1002.0
20260505070307 1 150 4.8 0.0 0.00 0.00 0.00 86 1002.0
20260505063306 0 170 4.8 0.0 0.00 0.00 0.00 93 1002.0
20260505060306 0 240 8.0 0.0 0.00 0.00 0.00 86 1001.0
20260505053309 0 130 4.8 0.0 0.00 0.00 0.00 93 1001.0
20260505050306 0 170 4.8 0.0 0.00 0.00 0.00 86 1001.0
20260505040306 0 150 4.8 0.0 0.00 0.00 0.00 92 1001.0
20260505033306 -1 0 0.0 0.0 0.00 0.00 0.00 92 1001.0
20260505030306 -2 220 1.6 0.0 0.00 0.00 0.00 92 1001.0